Vertical_Velocity
9 -1 4 2 5 1 -1 2 -0 2 -2 -2 -1 1 1 -3 -0 -3 -2 0 -3 -4 -6 -4 -4 -2 -3 1 -1 4 0 5 2 3 -0 -1 2 0 2 -1 -1 -1 -2 -1 1 -0 -4 0 -2 0 3 -2 3 -1
5 1 2 -1 6 5 1 -1 1 0 -1 -0 -0 1 -1 -3 -5 -3 -1 -2 -4 -5 -6 -5 -5 -3 -4 -1 -6 -2 1 -6 -3 -3 1 1 -2 2 2 2 0 -1 1 1 1 -1 -0 -0 -1 3 0 1 -3 -0
-1 -0 -2 2 9 3 7 1 -1 -1 -0 -0 3 2 2 -1 -2 -7 1 1 -4 -4 -4 -9 -5 -2 -3 -0 -2 -3 -1 2 11 2 -0 -2 -2 -1 -2 1 -0 1 -0 1 3 1 3 1 2 -1 -3 -1 -0 0
8 1 -8 4 6 4 4 0 0 0 -2 2 4 -2 4 -3 4 -10 2 -3 -1 -4 -7 -6 -7 -0 -1 2 -1 -3 -3 1 1 -2 -2 3 1 -0 -2 -3 -0 -2 1 3 4 3 5 1 -4 -1 5 -2 3 2
5 3 -4 6 10 4 4 0 2 0 1 -1 2 -3 4 -2 -1 -5 4 -9 -2 -6 -4 -7 -7 -4 -1 -1 -1 -3 -1 -1 -2 -2 -4 -7 -3 2 -0 -3 3 1 0 -1 7 1 2 4 1 -2 1 2 -2 3
12 -1 -3 5 10 6 -1 -0 -0 1 -1 -1 1 -2 3 -4 -4 -6 -3 -4 -5 -6 -5 -3 -3 -6 -5 -4 -3 -2 0 -1 1 -1 -10 0 3 3 2 -3 5 4 -1 -4 2 5 2 -1 3 6 4 -2 1 2
6 9 -4 8 7 5 1 1 1 -2 1 0 -1 -1 -1 -3 -2 -1 -2 -4 -6 -2 -7 -7 -5 -4 -5 -3 -1 -4 -2 -1 -2 -2 -3 7 2 4 2 -2 0 -0 -1 -2 -2 -1 5 -2 5 -0 0 -0 -0 -1
6 8 -2 9 10 5 4 2 -3 -1 1 1 -0 2 -4 -1 -2 -2 -0 -5 -3 -4 -5 -6 -9 -3 -6 -3 -3 -3 -3 -7 -0 -0 -2 -1 -7 0 -1 2 3 4 5 -0 -1 -1 -1 3 0 -2 -4 -4 2 2
3 4 2 5 5 2 3 -0 -1 1 -1 1 1 -1 -0 -3 -2 -2 -5 -7 -1 1 -2 -5 -10 -7 -6 -11 -10 -5 2 -3 -3 -0 -4 -7 5 -4 -1 -5 -4 -1 2 5 -4 -3 -1 -1 2 -1 -2 -6 1 -2
5 12 11 0 3 3 2 -1 1 1 2 1 1 -2 -1 -6 -2 -3 -4 -4 -3 -3 -7 -7 -11 -7 -9 -8 -4 -9 -5 -7 -3 -6 -4 -2 -6 -2 -2 1 -2 -3 -4 -1 3 1 -1 -7 -5 -3 2 -3 -5 -1
4 17 -5 4 6 2 5 0 2 1 1 -2 -2 -1 -4 -3 -1 -4 -3 -4 -3 -3 -4 -4 -5 -2 1 -0 -2 -3 -5 -3 -6 -5 -8 -3 -6 -3 -4 -5 -1 -3 -5 -5 -2 -4 -6 -5 -0 5 -1 1 -1 -5
6 -1 4 5 3 9 3 5 -1 2 1 -1 -2 -1 -3 -2 -2 -3 -3 -3 -2 -2 -2 -3 -1 -2 -2 -2 -3 2 -2 1 -3 -8 -10 -4 -1 -3 -2 -6 -5 -4 -4 -4 -4 -3 -2 -3 -7 -1 1 -1 1 -7
15 11 5 8 8 5 6 -4 3 2 1 -2 -1 -2 -4 -6 -3 -1 0 -1 -0 -1 -0 -2 0 -4 0 2 1 -0 -3 -1 1 3 -2 1 3 4 6 4 1 -1 1 1 -1 -4 -5 -3 -3 -4 2 2 -1 3
7 6 10 11 9 8 0 7 -0 1 0 -1 -2 -2 -2 0 -1 -0 -1 0 -0 -0 0 1 -2 -0 -1 0 -2 -3 -1 -0 -1 6 -0 2 -6 -4 -6 -2 -2 -1 0 1 -0 -1 -2 -4 -4 -5 -0 1 0 1
11 8 6 7 9 5 6 -0 -1 -0 -2 2 1 -3 -0 -1 -2 -1 -0 -1 -1 -2 -2 6 -0 -3 -0 -4 0 -2 -6 -4 -2 -2 0 2 2 -0 -6 -8 -7 -3 -3 -0 -0 3 -2 -1 -4 -4 -3 4 -2 0
6 4 8 4 6 7 0 1 -1 -0 1 1 1 3 1 -0 -2 -1 -2 -3 -0 -3 -0 5 -0 -4 1 2 -1 0 -0 1 -1 -2 4 0 1 -3 -4 -1 -1 -2 -1 1 2 -8 -3 -7 -4 0 -9 0 3 1
11 6 7 11 3 -1 3 -2 1 0 3 0 1 -0 -0 -1 1 -0 1 0 -2 -2 3 -1 1 0 -1 -4 -2 2 -1 -1 2 1 0 4 -2 -1 -2 4 -0 0 1 -5 -9 -5 -5 -11 -10 -3 -3 -13 4 2
17 7 7 -1 5 4 -1 -2 1 2 2 0 1 -1 -2 -1 -0 -0 -0 -3 -2 -2 1 -0 2 5 -7 -2 -1 0 -4 0 -4 -5 1 2 -0 -3 -8 2 6 -1 2 2 -4 -4 -3 -3 -2 -1 -4 -12 -0 3
14 8 -1 8 3 1 -1 1 0 3 2 1 -3 -2 -4 -2 0 1 -2 -0 -0 -0 -3 4 -5 -1 -1 4 7 1 -1 -2 1 7 9 6 -3 -0 6 1 -1 -1 2 1 -1 -2 4 3 3 2 2 -2 0 2
-0 -1 4 1 2 2 -0 -1 -2 0 2 -2 -5 -6 -1 -4 -2 -2 -1 1 -2 -3 -4 2 4 0 -1 -0 1 -4 1 -0 -4 -5 6 14 -1 3 0 -2 -1 0 1 1 1 0 4 5 -1 6 5 1 3 4
0 4 2 -2 -3 3 3 -7 -2 -0 -5 -4 -3 -4 -3 -5 -7 -1 0 -2 2 -5 3 -0 0 -2 -1 -1 4 -0 -3 -0 -1 -4 -7 -0 -4 -5 -0 1 -2 -2 -0 -1 -1 7 3 2 3 5 5 0 4 5
2 2 8 5 1 -7 -1 2 0 -3 0 -2 -4 -2 -4 -7 -2 -1 -3 -5 -1 -4 -4 -2 -1 2 1 0 -1 -2 -5 0 0 -0 -2 -3 -4 -1 1 2 -1 1 2 -5 -5 2 7 2 2 3 1 -0 5 4
-3 -1 5 -5 -6 -1 0 -2 0 1 -1 -0 -3 -7 -0 0 2 -3 -3 -2 -4 -0 -3 -1 -3 -4 0 0 -4 -2 -2 4 3 -1 0 -4 2 -2 -1 4 -3 -1 0 2 -7 3 6 -1 -0 1 1 -3 3 4
-3 -5 -3 1 0 -6 2 0 3 1 -3 -3 -4 -3 1 -0 -2 -0 5 -5 -1 -0 0 -0 -1 3 2 0 1 -3 -9 -4 0 5 -3 -6 -2 4 -1 -1 0 4 -7 -0 3 7 1 -2 2 -0 0 -2 0 2
-5 -2 -4 -8 -5 -4 -0 2 2 1 4 -2 -2 0 0 -3 -5 1 8 -12 -1 -6 -3 -2 -3 3 -4 -4 -2 -0 -6 -10 -9 -7 2 -4 -3 -0 4 2 4 0 -8 4 1 3 -1 -1 2 -0 -1 -0 -2 1
-2 -6 -3 3 -4 -2 6 3 1 -1 -2 -2 -3 -2 -0 -5 2 -3 3 -7 -7 -6 -3 -3 -1 -4 0 -9 -0 -2 4 3 -3 1 2 -0 -1 -7 -2 1 8 11 -5 0 -2 2 1 1 2 -0 -0 -0 -1 -1
-7 -4 4 6 5 7 3 -1 -3 -1 -1 -3 2 -0 -3 -5 2 7 -9 -5 -3 -3 -2 -3 -7 -1 0 4 3 -1 1 -1 -3 -2 1 3 -1 -7 -5 1 3 -2 3 4 -2 0 2 0 1 1 -0 -0 -1 -1
1 4 5 8 6 5 -1 -2 -2 -5 -2 -0 -2 3 -7 6 5 -2 -5 -1 -1 -6 -2 0 -7 -2 3 1 -0 -4 -1 -1 1 2 4 4 -2 -5 -5 -1 -1 -3 1 1 -1 2 1 1 0 0 0 -2 0 1
3 1 -2 -1 -0 -4 -4 -3 -3 -1 -1 -1 0 2 0 8 4 -3 -2 -1 -7 -6 -2 3 9 -7 -1 0 -1 -5 -3 -4 -3 1 4 -2 11 0 -3 -0 -1 -3 -0 -3 -3 3 0 -1 1 2 0 0 -1 0
5 2 -1 -5 -6 -8 -1 1 3 3 2 1 1 0 3 2 2 3 3 -8 -10 -7 -4 -1 1 -2 -1 -3 -1 6 4 -7 -4 -8 -0 -2 1 -2 0 1 -0 -3 -0 -0 -1 -0 1 0 2 2 0 1 0 -0
-2 -6 -4 -1 1 -0 1 2 0 -1 4 4 -1 -1 -2 4 16 3 -3 -17 -4 -7 -5 -3 2 -1 -9 -2 -8 -14 2 10 -0 1 -0 -4 -3 -3 -1 -1 1 0 0 -0 -0 0 1 0 -0 -0 1 1 -0 -0
1 1 1 1 4 1 0 -2 -0 3 1 -3 -1 0 -2 -4 4 9 5 -8 -6 -4 -2 -3 -4 -1 -2 -0 -1 -3 -4 -2 0 3 3 -2 -4 -3 -2 -1 -0 1 0 -0 -0 1 1 -1 -1 -1 -2 -2 -2 -2
0 0 2 1 -1 -2 -4 -1 -2 -2 1 -1 1 -1 -3 -9 1 -1 -1 3 -1 0 2 -1 -4 -4 -3 -3 -1 1 3 -2 -2 4 3 1 -1 -2 -0 0 -1 0 -0 -1 -1 -1 -2 -2 -1 -2 -2 -2 -2 -2
Height
5592 5602 5615 5622 5630 5638 5644 5649 5653 5655 5656 5658 5660 5660 5660 5660 5658 5656 5652 5648 5642 5635 5627 5617 5609 5600 5596 5594 5595 5596 5598 5600 5603 5606 5608 5609 5611 5613 5614 5615 5615 5616 5616 5617 5618 5618 5619 5619 5620 5622 5622 5621 5622 5621
5583 5594 5605 5613 5623 5630 5636 5641 5645 5646 5649 5652 5654 5654 5654 5654 5654 5652 5648 5645 5640 5635 5625 5618 5611 5601 5597 5592 5593 5594 5595 5595 5598 5601 5604 5605 5607 5609 5610 5611 5612 5613 5613 5613 5614 5614 5614 5615 5615 5616 5616 5617 5617 5617
5575 5586 5596 5605 5615 5622 5628 5633 5636 5639 5641 5644 5646 5646 5647 5646 5648 5647 5643 5640 5637 5631 5625 5617 5610 5602 5597 5594 5592 5592 5591 5592 5594 5596 5600 5602 5603 5605 5606 5607 5606 5606 5607 5608 5610 5610 5609 5609 5609 5609 5610 5611 5611 5611
5566 5577 5589 5598 5607 5614 5620 5625 5628 5631 5634 5638 5639 5639 5640 5640 5641 5642 5639 5637 5634 5628 5623 5618 5610 5603 5597 5593 5591 5590 5592 5593 5594 5595 5596 5597 5599 5600 5601 5601 5599 5600 5601 5603 5603 5603 5604 5604 5602 5602 5603 5603 5604 5605
5559 5570 5581 5591 5600 5607 5612 5616 5620 5624 5628 5630 5632 5633 5635 5634 5637 5636 5635 5634 5630 5627 5620 5616 5610 5603 5597 5593 5591 5590 5589 5588 5588 5590 5589 5591 5592 5594 5594 5594 5593 5595 5596 5595 5597 5597 5598 5597 5595 5594 5596 5595 5595 5597
5551 5563 5574 5583 5592 5599 5604 5608 5613 5616 5621 5623 5625 5626 5629 5629 5633 5632 5631 5630 5626 5623 5617 5615 5611 5605 5600 5595 5590 5589 5587 5587 5587 5587 5587 5584 5584 5587 5588 5588 5589 5588 5588 5587 5589 5590 5589 5589 5589 5588 5589 5587 5586 5587
5545 5555 5566 5576 5584 5591 5596 5600 5605 5610 5614 5616 5618 5621 5622 5624 5625 5627 5627 5625 5622 5619 5614 5613 5610 5606 5601 5595 5590 5587 5585 5585 5584 5583 5582 5580 5579 5580 5580 5580 5580 5580 5580 5579 5579 5582 5582 5580 5581 5579 5578 5577 5577 5577
5538 5549 5558 5568 5577 5584 5588 5594 5597 5603 5605 5608 5611 5615 5615 5618 5619 5621 5620 5620 5617 5614 5612 5611 5609 5606 5603 5598 5593 5588 5583 5581 5580 5580 5579 5579 5579 5577 5577 5577 5576 5576 5575 5573 5572 5572 5573 5573 5572 5570 5568 5567 5566 5565
5532 5542 5552 5561 5568 5575 5580 5585 5589 5594 5597 5601 5605 5607 5610 5612 5613 5615 5615 5615 5612 5612 5609 5608 5606 5605 5602 5598 5594 5589 5584 5580 5578 5575 5575 5575 5574 5575 5575 5574 5573 5572 5571 5570 5568 5566 5564 5563 5562 5561 5559 5556 5556 5556
5527 5536 5545 5554 5561 5567 5571 5575 5581 5585 5589 5593 5597 5600 5603 5606 5608 5610 5609 5610 5608 5607 5606 5605 5603 5601 5599 5595 5592 5589 5585 5582 5578 5575 5571 5571 5570 5571 5571 5570 5569 5567 5565 5564 5563 5561 5558 5555 5553 5551 5550 5548 5546 5544
5521 5530 5538 5545 5553 5559 5565 5568 5573 5577 5581 5586 5590 5594 5597 5599 5602 5604 5605 5605 5605 5604 5603 5602 5600 5597 5594 5592 5589 5586 5582 5580 5577 5575 5571 5569 5567 5565 5564 5563 5562 5560 5558 5556 5553 5551 5549 5547 5545 5542 5539 5537 5534 5531
5516 5523 5531 5538 5546 5553 5556 5562 5564 5569 5574 5580 5586 5588 5590 5593 5596 5599 5600 5600 5600 5599 5598 5596 5595 5593 5591 5588 5585 5582 5579 5577 5574 5571 5568 5566 5563 5560 5557 5555 5553 5552 5550 5547 5544 5541 5539 5536 5535 5533 5531 5528 5526 5523
5509 5517 5524 5533 5540 5545 5549 5553 5558 5561 5568 5573 5578 5581 5584 5587 5589 5592 5594 5594 5593 5593 5592 5590 5589 5588 5585 5583 5580 5577 5574 5572 5570 5566 5564 5561 5558 5555 5553 5549 5546 5542 5539 5535 5533 5530 5527 5525 5524 5522 5521 5519 5516 5513
5503 5512 5521 5527 5533 5538 5543 5549 5550 5556 5562 5567 5571 5575 5578 5581 5583 5585 5586 5588 5588 5586 5585 5582 5581 5581 5578 5576 5573 5570 5567 5565 5562 5560 5556 5553 5549 5547 5544 5541 5538 5534 5530 5526 5522 5518 5516 5513 5511 5510 5509 5509 5507 5505
5499 5508 5515 5522 5526 5532 5537 5539 5545 5552 5557 5563 5566 5569 5573 5576 5577 5578 5579 5581 5580 5579 5577 5574 5573 5572 5569 5567 5564 5561 5557 5555 5552 5549 5545 5543 5539 5534 5531 5528 5523 5519 5515 5511 5506 5502 5500 5498 5497 5496 5495 5495 5496 5495
5494 5502 5509 5514 5520 5525 5527 5535 5541 5548 5552 5557 5561 5564 5567 5570 5570 5571 5573 5573 5573 5572 5569 5565 5563 5561 5560 5557 5555 5550 5548 5545 5542 5537 5534 5530 5524 5519 5514 5509 5503 5499 5495 5491 5487 5484 5481 5480 5479 5480 5481 5480 5482 5483
5489 5496 5501 5507 5512 5516 5525 5530 5538 5543 5547 5552 5556 5559 5562 5563 5564 5566 5566 5566 5566 5564 5560 5556 5554 5552 5549 5547 5545 5541 5538 5535 5531 5526 5522 5517 5510 5502 5495 5488 5481 5476 5471 5466 5462 5458 5455 5455 5455 5457 5461 5462 5466 5469
5485 5490 5496 5501 5507 5515 5521 5529 5534 5538 5544 5547 5550 5553 5555 5556 5558 5558 5559 5559 5558 5555 5551 5548 5545 5542 5538 5537 5533 5530 5527 5523 5517 5513 5507 5499 5490 5480 5472 5465 5458 5451 5444 5437 5432 5430 5427 5426 5427 5432 5439 5444 5451 5455
5480 5486 5491 5497 5507 5513 5519 5524 5531 5535 5539 5543 5546 5548 5549 5550 5550 5551 5552 5551 5549 5546 5541 5539 5536 5533 5530 5527 5522 5518 5514 5509 5505 5499 5490 5480 5469 5460 5450 5440 5433 5426 5422 5418 5415 5413 5411 5409 5409 5414 5421 5428 5437 5442
5476 5481 5490 5497 5504 5511 5516 5522 5527 5531 5536 5539 5541 5541 5542 5543 5544 5544 5544 5543 5540 5535 5532 5530 5526 5522 5519 5515 5510 5506 5501 5494 5488 5484 5478 5465 5450 5441 5430 5423 5417 5413 5411 5409 5408 5406 5404 5403 5401 5404 5408 5415 5424 5430
5472 5479 5486 5495 5501 5508 5514 5518 5522 5528 5531 5533 5533 5534 5535 5536 5536 5535 5534 5532 5530 5525 5523 5520 5515 5511 5507 5502 5497 5492 5486 5479 5471 5461 5453 5446 5434 5424 5417 5411 5407 5405 5404 5403 5401 5401 5399 5396 5397 5398 5401 5405 5412 5419
5472 5478 5486 5493 5499 5505 5510 5515 5519 5522 5524 5526 5526 5526 5527 5527 5526 5524 5523 5523 5519 5515 5512 5508 5504 5500 5495 5490 5485 5478 5472 5464 5454 5442 5430 5423 5417 5412 5409 5404 5401 5400 5399 5396 5395 5395 5394 5392 5391 5392 5394 5397 5402 5409
5473 5479 5485 5491 5496 5501 5506 5509 5513 5515 5516 5519 5519 5519 5518 5517 5516 5515 5514 5513 5507 5504 5501 5497 5493 5488 5483 5477 5471 5464 5459 5449 5437 5426 5419 5414 5408 5404 5402 5398 5394 5393 5393 5390 5389 5389 5388 5385 5385 5387 5388 5390 5393 5398
5471 5478 5482 5487 5492 5497 5501 5503 5506 5507 5509 5510 5509 5509 5509 5508 5506 5505 5503 5501 5496 5493 5489 5486 5481 5475 5471 5464 5455 5445 5440 5434 5425 5417 5408 5404 5401 5399 5395 5393 5390 5388 5386 5384 5382 5381 5380 5380 5380 5381 5381 5383 5386 5390
5468 5473 5480 5483 5488 5492 5493 5496 5497 5499 5501 5501 5500 5500 5498 5496 5495 5494 5492 5486 5484 5480 5477 5473 5468 5463 5456 5449 5441 5432 5421 5416 5411 5409 5403 5396 5393 5391 5389 5387 5386 5383 5380 5377 5376 5375 5374 5373 5373 5374 5375 5376 5378 5382
5464 5469 5475 5479 5481 5483 5486 5489 5491 5492 5492 5491 5490 5489 5487 5486 5484 5480 5478 5472 5469 5466 5463 5459 5455 5449 5441 5434 5429 5422 5415 5407 5404 5401 5397 5391 5387 5383 5381 5379 5378 5378 5375 5372 5370 5369 5368 5368 5368 5368 5368 5369 5371 5374
5459 5463 5468 5471 5475 5478 5480 5481 5482 5482 5481 5480 5480 5479 5476 5473 5472 5469 5462 5458 5455 5453 5449 5443 5440 5435 5430 5423 5415 5410 5405 5400 5396 5393 5389 5385 5380 5376 5373 5371 5369 5368 5367 5366 5364 5363 5363 5363 5362 5362 5362 5363 5364 5366
5456 5460 5463 5466 5468 5470 5471 5473 5473 5473 5472 5471 5470 5468 5465 5463 5459 5452 5447 5445 5443 5440 5436 5430 5425 5420 5415 5409 5403 5400 5397 5391 5387 5382 5379 5376 5372 5368 5366 5363 5361 5360 5360 5359 5358 5358 5357 5357 5356 5356 5357 5357 5358 5359
5449 5452 5455 5457 5460 5462 5463 5463 5462 5462 5461 5460 5459 5456 5453 5449 5443 5437 5433 5431 5429 5425 5423 5419 5412 5406 5401 5397 5392 5388 5384 5380 5376 5374 5370 5366 5363 5359 5358 5356 5354 5353 5353 5353 5351 5352 5351 5350 5350 5350 5350 5351 5351 5352
5443 5445 5447 5449 5450 5450 5451 5451 5452 5451 5450 5448 5446 5443 5440 5435 5431 5425 5420 5416 5414 5412 5409 5404 5399 5394 5391 5387 5385 5382 5373 5367 5363 5359 5356 5353 5348 5346 5348 5349 5347 5347 5347 5347 5346 5345 5345 5345 5345 5345 5344 5344 5344 5344
5433 5435 5437 5439 5440 5440 5441 5441 5440 5439 5437 5434 5431 5430 5429 5428 5422 5414 5406 5403 5402 5397 5393 5390 5386 5380 5378 5374 5370 5366 5363 5358 5352 5347 5344 5342 5340 5340 5341 5341 5340 5340 5340 5341 5341 5340 5339 5339 5339 5338 5338 5338 5337 5337
5425 5426 5427 5428 5429 5429 5429 5428 5428 5427 5424 5423 5421 5419 5418 5416 5413 5406 5397 5391 5386 5383 5379 5376 5374 5371 5366 5361 5356 5352 5349 5344 5339 5336 5334 5333 5333 5334 5334 5333 5333 5334 5335 5335 5334 5334 5333 5333 5332 5331 5330 5329 5328 5328
5414 5416 5417 5417 5417 5417 5417 5416 5416 5417 5416 5414 5412 5409 5405 5402 5398 5392 5388 5381 5375 5372 5368 5365 5361 5356 5352 5347 5344 5340 5336 5334 5331 5328 5327 5326 5326 5326 5327 5327 5327 5329 5329 5329 5328 5328 5326 5325 5323 5321 5320 5318 5318 5317